SCP
2 2 1 1 2 2 4 6 6 5 5 5 6 6 5 4 3 3 4 6 6 5 5 5 6 6 5 4 4 3 3 3 3 3 2 2 2 2 3 3 3 4 5
2 2 2 2 2 3 4 6 7 8 7 6 7 7 5 3 3 3 4 6 7 6 5 5 6 6 5 4 4 3 3 3 3 3 3 2 2 2 2 3 3 3 4
2 2 2 2 2 3 5 7 10 11 9 8 7 7 5 4 3 4 5 7 7 6 6 6 6 6 5 4 4 4 4 3 4 4 4 3 3 2 2 2 3 3 3
2 2 3 3 2 3 5 9 11 11 9 7 7 7 6 5 5 5 6 6 6 5 5 6 6 5 4 4 4 4 4 4 5 5 5 4 4 3 3 2 3 3 3
3 3 4 4 3 3 5 9 11 9 7 7 8 9 8 7 6 6 6 5 5 5 5 6 6 5 5 5 5 6 6 6 7 7 6 6 5 5 4 3 3 3 4
3 3 4 5 4 4 6 10 12 10 9 9 10 11 10 8 7 6 5 5 5 5 5 6 7 7 6 6 7 7 8 8 9 8 7 6 6 6 5 5 4 4 4
3 3 4 5 5 5 7 12 16 15 12 10 9 9 9 8 6 5 5 4 4 5 6 7 8 8 7 7 8 9 9 9 8 8 7 6 6 6 6 5 4 4 4
3 3 3 4 5 6 9 14 18 17 13 8 6 6 7 7 6 5 4 4 5 6 7 9 8 7 7 7 8 8 9 8 7 7 7 6 6 6 6 5 4 4 4
3 3 3 3 4 6 10 15 17 15 11 8 5 5 5 5 5 4 5 6 7 8 8 8 8 7 7 7 7 8 8 7 7 6 6 5 5 5 4 5 5 4 4
4 4 3 4 4 6 8 11 12 13 12 9 6 5 4 4 4 4 6 8 9 8 7 8 8 8 8 7 6 6 6 6 5 4 4 4 5 5 5 5 5 5 4
5 4 4 5 5 5 6 7 9 11 13 12 9 6 5 4 5 6 7 9 9 8 7 7 9 9 9 8 6 5 4 4 4 3 4 5 6 6 6 6 5 5 4
5 4 5 5 6 7 7 7 7 8 11 13 12 8 6 6 6 7 8 8 7 7 7 8 9 9 9 9 7 5 4 3 4 4 5 6 6 6 6 6 5 5 4
5 5 5 7 9 9 9 8 6 6 8 12 13 11 8 7 8 8 8 8 7 7 7 7 8 8 8 8 7 5 4 3 4 5 6 7 6 6 6 6 6 6 5
7 7 8 10 11 11 10 9 8 7 8 10 12 11 10 9 9 9 8 8 7 6 6 7 7 7 6 6 6 5 4 4 4 5 7 7 7 6 6 6 6 6 6
8 8 9 11 11 11 11 11 10 9 9 9 11 12 11 10 9 8 7 7 6 6 6 7 7 6 5 5 5 6 6 5 5 5 6 6 6 5 4 4 5 5 5
6 8 9 10 10 10 11 10 10 10 9 8 9 11 12 11 10 8 6 6 7 7 7 8 7 7 6 6 6 7 7 7 6 5 5 5 4 4 4 4 3 3 3
6 7 9 10 9 8 8 9 9 10 10 9 9 10 11 12 11 9 8 8 8 9 9 9 9 10 9 7 6 6 7 8 8 7 6 5 4 4 6 5 3 3 3
7 8 10 10 10 9 8 8 9 11 12 13 12 11 11 12 12 11 12 12 11 10 10 10 11 12 11 7 4 4 7 9 9 9 8 7 6 5 6 5 5 5 5
9 10 11 11 11 12 12 11 13 15 17 17 16 15 14 14 14 14 15 16 15 13 11 11 12 13 12 7 4 4 6 9 10 11 11 10 8 6 5 5 6 7 7
10 11 13 12 12 13 14 15 16 18 18 16 16 17 17 17 16 17 18 19 19 18 16 14 14 15 13 8 4 4 6 8 9 11 12 11 9 6 5 5 7 7 7
12 13 14 13 11 10 11 13 14 14 12 11 13 16 18 19 18 18 21 24 25 23 19 17 15 14 12 8 4 3 5 7 9 10 11 10 7 4 3 4 6 6 6
13 14 15 13 10 8 8 10 10 9 8 8 10 13 17 18 18 21 26 30 28 23 18 16 14 13 11 8 5 2 2 4 7 8 8 7 4 2 1 2 3 4 4
14 15 15 13 10 8 8 10 11 11 10 9 10 12 15 18 20 25 30 30 25 18 14 13 13 13 12 10 6 2 1 2 4 5 5 3 2 1 0 1 1 2 3
16 16 15 13 10 8 9 11 13 15 14 12 11 12 15 19 25 28 26 20 14 12 12 13 14 15 13 11 8 5 2 1 2 3 3 2 1 1 1 1 1 2 3
16 16 15 12 11 10 10 12 15 16 15 14 13 14 17 22 25 22 16 10 7 7 9 11 12 12 10 8 7 6 4 2 2 2 3 3 2 2 3 3 3 3 3
15 15 13 11 11 11 11 13 16 16 16 15 13 16 21 24 20 14 9 7 6 5 5 7 8 7 6 5 5 4 4 3 2 2 3 3 3 3 3 3 3 3 3
Wind_Speed
12 11 10 10 9 8 7 6 4 4 2 2 1 1 1 1 2 2 3 3 2 2 2 1 1 1 1 1 2 1 2 1 2 1 1 2 3 3 3 3 2 4 4
12 11 11 10 10 9 8 7 5 4 3 2 1 1 1 1 2 1 2 2 1 2 2 2 1 1 1 1 2 1 1 2 2 1 1 1 1 2 2 2 3 2 2
13 12 11 10 10 10 8 7 5 5 4 3 2 1 1 0 1 2 2 2 1 1 0 2 1 1 1 1 2 2 2 2 2 1 1 1 1 1 1 1 2 2 2
13 12 11 10 10 10 9 7 6 5 4 3 2 2 2 1 1 1 2 2 1 1 1 2 1 1 1 1 2 2 2 2 2 1 1 1 1 1 1 1 1 2 2
13 13 12 10 10 11 10 8 7 5 4 3 2 1 1 1 0 1 2 2 1 1 1 2 1 1 1 1 1 0 1 1 2 2 1 1 1 2 1 2 1 1 2
13 13 12 11 10 10 10 9 8 6 5 4 2 2 1 0 0 0 1 1 1 1 1 2 2 1 1 1 1 1 2 2 2 2 2 1 2 2 2 2 2 1 2
12 12 12 12 10 10 10 10 9 7 5 5 3 3 2 2 1 1 1 1 1 1 1 1 1 1 1 2 1 2 2 2 2 2 2 2 2 1 1 1 2 1 1
12 12 12 11 12 11 10 10 9 7 6 5 4 3 3 2 1 1 1 1 0 0 1 2 1 1 2 2 1 1 2 1 2 3 2 2 2 2 1 1 1 1 1
12 12 12 12 11 12 11 10 10 8 7 6 5 3 3 2 1 1 1 1 1 1 2 2 1 1 1 1 1 1 1 1 2 2 2 2 2 2 2 1 1 1 2
10 11 11 10 10 10 10 10 10 8 7 6 5 5 4 3 2 2 1 1 0 0 1 1 1 1 1 1 1 1 1 1 1 2 2 2 2 2 2 2 2 1 2
9 10 10 10 9 9 9 9 10 9 8 7 5 4 4 4 4 2 1 1 1 0 0 1 1 1 1 1 1 2 2 2 2 3 2 2 3 2 2 2 2 1 1
8 9 10 10 9 9 9 8 7 8 9 7 6 5 4 4 4 3 2 2 1 1 1 1 1 2 1 1 2 3 2 2 2 2 2 3 2 2 2 2 2 2 1
6 7 8 8 8 7 7 7 7 6 6 7 7 6 5 4 4 3 3 3 2 2 2 2 2 2 1 1 2 2 2 2 2 2 2 3 2 2 2 2 2 2 2
6 6 7 7 6 6 5 5 5 5 5 5 6 5 5 4 3 3 3 3 3 3 3 2 2 2 2 2 2 2 3 2 2 2 2 2 2 2 2 2 2 2 2
6 6 6 6 6 6 5 4 4 4 4 3 4 4 4 3 3 3 3 3 4 4 3 3 3 3 3 2 1 2 3 3 3 2 2 2 1 1 2 2 2 2 2
4 5 5 4 5 5 5 4 4 3 4 4 4 4 4 3 3 3 4 3 3 3 3 4 3 3 3 2 2 2 3 3 3 3 2 2 3 3 3 4 4 3 3
4 3 4 4 3 4 4 5 4 4 4 4 3 3 4 4 4 4 3 3 4 4 4 4 4 3 2 2 2 2 4 4 3 3 3 4 3 2 1 3 4 5 6
4 4 2 2 2 3 4 4 5 4 4 4 4 4 4 4 4 3 3 3 3 3 4 4 4 3 3 3 3 3 4 4 4 4 4 4 3 3 2 3 3 3 4
4 3 2 1 1 1 2 3 4 4 4 4 3 3 4 3 3 3 4 3 3 4 4 5 4 4 3 5 4 3 4 4 4 5 5 4 4 3 3 3 3 3 3
4 3 3 2 2 1 1 1 2 2 3 3 2 2 3 4 4 4 4 3 3 4 4 4 4 4 4 5 6 5 3 4 4 4 4 4 4 5 4 3 3 4 4
3 3 3 2 2 1 1 1 1 1 1 2 2 2 3 3 4 3 3 3 3 3 3 4 4 4 4 6 7 6 4 4 4 4 4 3 5 5 6 5 4 5 4
3 2 2 2 2 2 0 0 0 1 1 2 2 2 3 4 4 3 3 3 4 4 4 5 5 4 4 6 7 9 8 6 5 4 3 1 4 5 7 6 6 6 4
2 2 2 2 2 2 1 1 0 1 2 2 3 3 4 4 3 4 4 4 3 4 4 4 4 4 3 4 7 9 9 8 5 4 2 2 5 5 5 8 8 5 4
2 2 2 2 2 1 2 1 1 1 2 3 3 3 4 4 4 3 4 4 3 4 3 4 3 3 2 1 2 3 5 6 6 5 4 4 6 6 6 5 5 5 5
3 2 2 3 2 2 2 2 1 1 3 3 2 3 4 3 2 3 3 3 2 2 3 3 3 3 3 2 3 3 3 3 3 3 4 3 2 3 3 3 4 4 5
3 2 3 3 3 2 2 2 2 2 2 3 3 3 2 2 2 2 2 1 2 3 3 3 3 3 3 3 4 4 4 4 3 3 4 4 4 4 4 4 4 4 4
Wind_Direction
149 149 147 143 137 133 131 127 125 117 113 109 134 133 122 145 129 133 130 131 145 150 161 150 156 201 166 169 178 179 198 226 224 231 261 252 221 200 200 201 205 197 198
153 152 153 150 144 141 139 139 143 141 138 135 137 131 123 163 135 99 117 137 159 163 174 150 185 195 159 187 206 186 204 236 213 203 205 261 259 252 212 181 201 198 196
163 161 162 159 154 149 148 150 145 145 158 155 144 163 154 77 109 140 139 148 150 141 113 124 173 163 177 192 216 206 211 235 255 215 197 231 243 284 247 212 191 180 177
163 164 165 165 160 154 152 141 141 144 149 153 172 183 160 162 168 145 141 143 135 151 152 144 163 189 249 185 225 197 228 218 248 254 230 216 201 213 263 276 231 194 193
164 164 165 163 163 159 155 147 142 147 149 164 168 167 153 161 160 139 136 141 161 191 186 154 161 188 230 241 265 64 247 253 255 259 245 247 242 225 215 251 241 230 226
164 162 161 158 163 163 156 150 146 150 153 158 162 160 197 203 333 9 121 177 177 187 186 160 167 189 215 249 255 241 253 267 280 286 283 264 255 241 224 241 236 222 225
163 162 160 162 164 162 156 150 149 157 162 164 172 171 201 214 218 234 202 224 204 162 167 165 159 184 214 228 235 232 244 260 271 268 280 282 274 279 258 232 254 253 229
163 165 164 167 167 162 158 152 151 159 166 170 177 181 188 207 208 211 257 187 214 156 159 157 160 183 214 228 208 251 246 252 273 279 284 281 281 281 268 238 232 260 261
165 165 166 169 169 165 162 161 155 160 166 170 170 176 183 208 240 199 214 237 233 212 135 142 156 182 194 219 252 242 268 267 271 279 279 285 290 294 295 277 234 222 247
165 162 164 166 166 162 162 162 160 162 164 172 184 181 187 192 214 240 198 179 236 352 89 131 174 184 169 213 248 255 250 257 274 270 284 287 286 286 281 273 271 246 229
167 164 162 163 164 163 162 161 164 164 171 180 182 187 183 186 194 201 195 210 185 200 169 197 214 195 187 217 243 258 252 250 257 266 260 267 275 290 294 287 279 264 236
167 164 161 161 162 164 163 160 171 174 175 178 178 186 188 187 191 189 187 190 192 200 202 187 216 235 216 222 251 261 260 258 263 270 270 272 274 275 290 300 296 283 249
157 155 155 155 157 162 161 164 173 177 182 177 185 185 187 191 191 184 181 188 201 207 204 193 218 249 247 233 247 260 269 267 268 268 267 274 276 282 290 282 283 281 283
144 141 141 145 150 152 156 161 170 175 175 175 189 177 183 183 184 187 188 189 199 212 210 210 219 234 235 237 252 264 263 266 267 269 274 283 277 273 277 273 283 286 282
137 136 138 145 151 156 156 161 173 171 170 175 183 172 176 180 183 192 202 199 204 216 213 222 226 236 226 232 248 280 261 260 258 260 255 253 260 268 262 270 274 277 273
118 133 139 141 152 158 164 171 175 170 168 182 190 173 178 186 192 205 209 213 216 223 216 223 228 240 240 221 219 259 284 270 259 264 261 234 219 221 230 235 242 241 249
115 121 142 151 165 172 168 177 179 176 181 187 188 183 188 196 202 215 212 219 226 229 232 232 229 227 221 209 208 249 275 270 258 256 260 268 251 212 222 245 237 239 238
66 84 92 140 173 180 179 184 189 187 190 194 191 191 196 204 208 213 216 220 227 233 237 238 232 227 208 206 209 245 259 259 255 253 250 250 248 242 236 249 251 247 241
48 48 54 61 69 120 167 181 196 192 194 200 202 198 202 206 213 215 221 222 224 235 237 238 230 226 207 210 216 220 258 251 251 250 249 237 227 226 221 232 251 261 265
51 36 25 38 45 31 90 166 199 189 199 204 211 204 215 215 214 214 222 226 224 228 242 247 232 222 209 205 212 216 246 256 255 248 237 225 222 204 204 226 247 254 260
58 50 29 30 35 29 72 177 213 207 226 230 220 207 214 223 219 209 217 219 222 233 240 251 244 227 215 196 207 208 235 257 263 259 251 221 202 208 213 225 240 246 263
43 33 26 16 16 19 344 208 296 299 263 244 239 235 228 236 231 214 224 224 223 231 235 243 241 228 213 202 207 211 229 253 267 266 274 250 195 205 220 228 241 247 253
16 4 358 4 6 349 335 268 277 287 271 256 239 242 238 236 230 228 229 224 218 234 242 240 238 236 219 203 202 212 231 246 259 280 306 277 235 227 227 229 237 239 238
327 342 336 328 327 336 327 310 283 258 253 255 245 243 238 236 229 219 227 225 228 234 243 246 250 251 235 217 192 215 228 240 250 268 275 249 235 237 244 238 235 232 234
321 330 320 314 322 319 306 302 308 265 258 257 253 258 245 241 243 233 242 235 240 221 235 254 255 257 251 240 228 230 238 245 251 265 255 241 221 223 230 232 226 228 234
315 316 302 300 301 298 296 313 317 292 271 261 253 258 260 237 236 239 270 311 264 221 216 233 249 266 243 231 222 227 226 228 229 239 252 251 245 238 239 241 239 231 235